This demonstration page uses our WeatherBlox Daily Observations layout. Learn more.

Left ArrowRight Arrow

36.17497, -115.13722

Hourly Observations for May 13, 2021

Temp ( °F °C ) Dew Point ( °F °C ) Humidity (%) Winds ( mph kmh ) Pressure ( in mb ) Visibility ( mi km ) Precip ( " mm )
12:53 am 00:53 Clear 74 23.3 23 -5 15 15 E 5 7 29.9 1013 10 16.0934 N/A
1:53 am 01:53 Clear 74 23.3 25 -3.9 16 16 N N/A 29.89 1012 10 16.0934 N/A
2:53 am 02:53 Clear 73 22.8 24 -4.4 16 16 NW 5 7 29.89 1012 10 16.0934 N/A
3:53 am 03:53 Clear 70 21.1 25 -3.9 18 18 WNW 6 9 29.89 1012 10 16.0934 N/A
4:53 am 04:53 Clear 70 21.1 25 -3.9 18 18 WNW 8 13 29.91 1013 10 16.0934 N/A
5:53 am 05:53 Sunny 68 20 25 -3.9 20 20 NNW 6 9 29.92 1013 10 16.0934 N/A
6:53 am 06:53 Sunny 72 22.2 25 -3.9 17 17 NW 5 7 29.94 1014 10 16.0934 N/A
7:53 am 07:53 Sunny 80 26.7 26 -3.3 14 14 N 6 9 29.95 1014 10 16.0934 N/A
8:53 am 08:53 Sunny 83 28.3 26 -3.3 12 12 N N/A 29.95 1014 10 16.0934 N/A
9:53 am 09:53 Sunny 86 30 26 -3.3 11 11 SE 8 13 29.94 1014 10 16.0934 N/A
10:53 am 10:53 Sunny 90 32.2 25 -3.9 9 9 E 8 13 29.94 1014 10 16.0934 N/A
11:53 am 11:53 Sunny 92 33.3 22 -5.6 8 8 S 5 7 29.92 1013 10 16.0934 N/A
12:53 pm 12:53 Sunny 94 34.4 22 -5.6 7 7 ESE 16 26 29.89 1012 10 16.0934 N/A
1:53 pm 13:53 Sunny 96 35.6 19 -7.2 6 6 S 13 20 29.86 1011 10 16.0934 N/A
2:53 pm 14:53 Sunny 97 36.1 18 -7.8 6 6 E 10 17 29.83 1010 10 16.0934 N/A
3:53 pm 15:53 Sunny 97 36.1 14 -10 5 5 VRB 7 11 29.79 1009 10 16.0934 N/A
4:53 pm 16:53 Sunny 98 36.7 15 -9.4 5 5 SSE 15 24 29.77 1008 10 16.0934 N/A
5:53 pm 17:53 Sunny 97 36.1 15 -9.4 5 5 SSE 12 19 29.76 1008 10 16.0934 N/A
6:53 pm 18:53 Sunny 96 35.6 15 -9.4 5 5 SW 12 19 29.75 1008 10 16.0934 N/A
7:53 pm 19:53 Clear 93 33.9 16 -8.9 6 6 WSW 10 17 29.76 1008 10 16.0934 N/A
8:53 pm 20:53 Clear 91 32.8 17 -8.3 6 6 SW 8 13 29.77 1008 10 16.0934 N/A
9:53 pm 21:53 Clear 88 31.1 18 -7.8 7 7 S 6 9 29.78 1009 10 16.0934 N/A
10:53 pm 22:53 Clear 85 29.4 20 -6.7 9 9 S 9 15 29.79 1009 10 16.0934 N/A
11:53 pm 23:53 Clear 84 28.9 19 -7.2 9 9 SW 6 9 29.78 1009 10 16.0934 N/A

Powered by AerisWeather